Location: Bijele Vode
(45.2833°N, 16.2000°E)
Time: 13:49:39
(UTC+00:00)

Lacrosse 5 rocket - Pass Details

Date: 18 September 2020
Orbit: 460 x 636 km, 57.0° (Epoch: 30 October)

Event Time Altitude Azimuth Distance (km) Brightness Sun altitude
Rises 19:48:42 0° 299° (WNW) 2,813 6.2 -28.6°
Reaches altitude 10° 19:51:33 10° 319° (NW) 1,945 5.0 -29.0°
Maximum altitude 19:54:39 18° 3° (N) 1,510 3.8 -29.4°
Enters shadow 19:55:15 18° 13° (NNE) 1,533 3.8 -29.5°
